TimeEDT,TemperatureF,Dew PointF,Humidity,Sea Level PressureIn,VisibilityMPH,Wind Direction,Wind SpeedMPH,Gust SpeedMPH,PrecipitationIn,Events,Conditions,WindDirDegrees,DateUTC
12:53 AM,55.9,55.0,97,30.02,10.0,SSE,3.5,-,N/A,,Overcast,150,2013-05-21 04:53:00
1:12 AM,55.4,55.4,100,30.01,10.0,South,3.5,-,N/A,,Overcast,180,2013-05-21 05:12:00
1:53 AM,55.9,54.0,93,30.01,10.0,SSE,5.8,-,N/A,,Overcast,160,2013-05-21 05:53:00
2:53 AM,54.0,54.0,100,30.02,8.0,Calm,Calm,-,N/A,,Overcast,0,2013-05-21 06:53:00
3:53 AM,54.0,53.1,97,29.99,10.0,SSE,5.8,-,N/A,,Overcast,160,2013-05-21 07:53:00
4:53 AM,54.0,53.1,97,29.99,10.0,SSE,5.8,-,N/A,,Overcast,150,2013-05-21 08:53:00
5:53 AM,54.0,52.0,93,30.01,9.0,Calm,Calm,-,N/A,,Overcast,0,2013-05-21 09:53:00
6:53 AM,53.1,52.0,96,30.00,7.0,SE,4.6,-,0.00,Rain,Light Rain,140,2013-05-21 10:53:00
7:46 AM,53.6,51.8,94,30.00,10.0,South,6.9,-,0.01,,Overcast,170,2013-05-21 11:46:00
7:53 AM,53.1,52.0,96,30.00,6.0,SSE,8.1,-,0.01,Rain,Light Rain,160,2013-05-21 11:53:00
8:03 AM,51.8,51.8,100,29.99,2.0,South,5.8,-,0.03,Rain,Rain,180,2013-05-21 12:03:00
8:24 AM,51.8,51.8,100,29.98,4.0,ESE,6.9,-,0.08,Rain,Light Rain,120,2013-05-21 12:24:00
8:53 AM,52.0,50.0,93,29.99,10.0,SE,8.1,-,0.10,Rain,Light Rain,130,2013-05-21 12:53:00
9:20 AM,50.0,48.2,94,30.00,3.0,SSE,6.9,-,0.03,Rain,Rain,150,2013-05-21 13:20:00
9:50 AM,50.0,48.2,94,30.01,10.0,SSE,6.9,-,0.04,Rain,Light Rain,160,2013-05-21 13:50:00
9:53 AM,50.0,48.9,96,30.01,10.0,SE,6.9,-,0.04,Rain,Light Rain,140,2013-05-21 13:53:00
10:09 AM,50.0,48.2,94,30.02,7.0,SE,3.5,-,0.02,Rain,Light Rain,130,2013-05-21 14:09:00
10:25 AM,50.0,48.2,94,30.03,1.8,Variable,3.5,-,0.13,Rain,Heavy Rain,0,2013-05-21 14:25:00
10:39 AM,48.2,48.2,100,30.01,2.0,SE,6.9,-,0.21,Rain,Rain,130,2013-05-21 14:39:00
10:41 AM,48.2,48.2,100,30.02,1.5,SE,8.1,-,0.25,Rain,Heavy Rain,130,2013-05-21 14:41:00
10:49 AM,48.2,48.2,100,30.03,1.8,Calm,Calm,-,0.27,Rain,Light Rain,0,2013-05-21 14:49:00
10:53 AM,48.9,48.9,100,30.03,3.0,SSE,8.1,-,0.27,Rain,Light Rain,150,2013-05-21 14:53:00
11:00 AM,48.2,48.2,100,30.04,2.0,Calm,Calm,-,0.01,Rain,Light Rain,0,2013-05-21 15:00:00
11:09 AM,48.2,48.2,100,30.04,1.5,East,3.5,-,0.02,Rain,Light Rain,80,2013-05-21 15:09:00
11:33 AM,50.0,48.2,94,30.05,2.0,ENE,4.6,-,0.04,Rain,Light Rain,60,2013-05-21 15:33:00
11:38 AM,50.0,48.2,94,30.05,2.0,ESE,5.8,-,0.05,Rain,Light Rain,110,2013-05-21 15:38:00
11:53 AM,50.0,48.0,93,30.05,2.0,ESE,5.8,-,0.06,Rain,Light Rain,120,2013-05-21 15:53:00
12:09 PM,50.0,48.2,94,30.04,3.0,East,5.8,-,0.01,Rain,Light Rain,90,2013-05-21 16:09:00
12:31 PM,50.0,48.2,94,30.02,5.0,East,9.2,-,0.01,Rain,Light Rain,80,2013-05-21 16:31:00
12:42 PM,50.0,48.2,94,30.02,5.0,East,6.9,-,0.01,Rain,Light Rain,100,2013-05-21 16:42:00
12:53 PM,50.0,48.9,96,30.03,6.0,East,5.8,-,0.01,,Overcast,80,2013-05-21 16:53:00
1:42 PM,50.0,48.2,94,30.02,2.0,East,6.9,-,0.01,Rain,Light Rain,90,2013-05-21 17:42:00
1:53 PM,50.0,48.9,96,30.04,1.5,East,4.6,-,0.02,Rain,Light Rain,80,2013-05-21 17:53:00
2:24 PM,50.0,48.2,94,30.04,1.5,NE,6.9,-,0.02,Rain,Light Rain,50,2013-05-21 18:24:00
2:43 PM,50.0,48.2,94,30.04,1.8,NE,5.8,-,0.03,Rain,Light Rain,50,2013-05-21 18:43:00
2:53 PM,50.0,48.9,96,30.05,1.8,NE,6.9,-,0.04,Rain,Light Rain,50,2013-05-21 18:53:00
3:03 PM,50.0,48.2,94,30.05,2.0,East,4.6,-,0.00,Rain,Light Rain,80,2013-05-21 19:03:00
3:43 PM,50.0,48.2,94,30.04,3.0,East,5.8,-,0.01,Rain,Light Rain,90,2013-05-21 19:43:00
3:53 PM,51.1,48.9,92,30.05,9.0,East,4.6,-,0.01,,Overcast,90,2013-05-21 19:53:00
4:53 PM,51.1,48.9,92,30.04,10.0,ENE,4.6,-,0.00,,Overcast,60,2013-05-21 20:53:00
5:12 PM,51.8,48.2,88,30.04,10.0,ENE,3.5,-,N/A,,Overcast,70,2013-05-21 21:12:00
5:33 PM,51.8,48.2,88,30.04,10.0,NE,3.5,-,N/A,,Overcast,50,2013-05-21 21:33:00
5:53 PM,52.0,48.9,89,30.05,10.0,ENE,3.5,-,N/A,,Overcast,60,2013-05-21 21:53:00
6:45 PM,51.8,48.2,88,30.05,10.0,Calm,Calm,-,N/A,,Overcast,0,2013-05-21 22:45:00
6:53 PM,52.0,48.9,89,30.05,10.0,East,3.5,-,N/A,,Overcast,90,2013-05-21 22:53:00
7:06 PM,51.8,48.2,88,30.04,10.0,Calm,Calm,-,N/A,,Overcast,0,2013-05-21 23:06:00
7:20 PM,51.8,50.0,94,30.05,10.0,SE,3.5,-,N/A,,Overcast,130,2013-05-21 23:20:00
7:27 PM,51.8,48.2,88,30.05,10.0,ESE,3.5,-,N/A,,Overcast,120,2013-05-21 23:27:00
7:42 PM,51.8,48.2,88,30.05,10.0,East,4.6,-,N/A,,Overcast,100,2013-05-21 23:42:00
7:53 PM,51.1,48.9,92,30.05,10.0,ESE,4.6,-,N/A,,Overcast,110,2013-05-21 23:53:00
8:19 PM,51.8,48.2,88,30.05,10.0,East,4.6,-,N/A,,Overcast,90,2013-05-22 00:19:00
8:42 PM,50.0,48.2,94,30.06,10.0,East,4.6,-,N/A,,Overcast,100,2013-05-22 00:42:00
8:53 PM,50.0,48.0,93,30.08,10.0,East,4.6,-,N/A,,Overcast,100,2013-05-22 00:53:00
9:29 PM,48.2,46.4,93,30.05,10.0,SSE,5.8,-,N/A,,Overcast,150,2013-05-22 01:29:00
9:38 PM,48.2,48.2,100,30.05,10.0,SE,3.5,-,N/A,,Overcast,140,2013-05-22 01:38:00
9:53 PM,48.9,46.9,93,30.06,10.0,SSE,4.6,-,N/A,,Overcast,150,2013-05-22 01:53:00
10:04 PM,48.2,46.4,93,30.05,10.0,SE,6.9,-,N/A,,Overcast,130,2013-05-22 02:04:00
10:35 PM,48.2,46.4,93,30.03,10.0,ESE,8.1,-,N/A,,Overcast,120,2013-05-22 02:35:00
10:53 PM,48.9,46.9,93,30.06,10.0,Calm,Calm,-,0.00,Rain,Light Rain,0,2013-05-22 02:53:00
11:20 PM,48.2,46.4,93,30.05,3.0,NNE,3.5,-,0.07,Rain,Rain,30,2013-05-22 03:20:00
11:28 PM,48.2,46.4,93,30.08,2.5,NW,5.8,-,0.11,Rain,Heavy Rain,310,2013-05-22 03:28:00
11:43 PM,48.2,46.4,93,30.10,1.5,WNW,5.8,-,0.26,Rain,Heavy Rain,300,2013-05-22 03:43:00
11:53 PM,48.0,48.0,100,30.09,3.0,Calm,Calm,-,0.30,Rain,Rain,0,2013-05-22 03:53:00